Regional Weather Roundup
Issued by NWS

Home | Current Version | Previous Version | Text Only | Print | Product List | Glossary On
Versions: 1 2 3 4 5 6 7 8 9 10 11 12 13 14 15 16 17 18 19 20 21 22 23 24 25 26 27 28 29 30 31 32 33 34 35 36 37 38 39 40 41 42 43 44 45 46 47 48 49 50
000
ASUS43 KMPX 020301
RWRMN
WEATHER ROUNDUP FOR MINNESOTA
NATIONAL WEATHER SERVICE TWIN CITIES/CHANHASSEN MN
1000 PM CDT WED APR 01 2015


NOTE: "FAIR" INDICATES FEW OR NO CLOUDS BELOW 12,000 FEET WITH NO
SIGNIFICANT WEATHER AND/OR OBSTRUCTIONS TO VISIBILITY. N/A MEANS
CURRENT SKY AND/OR WEATHER CONDITIONS ARE NOT AVAILABLE.

MNZ060>063-068>070-020400-
   Twin Cities Metro

CITY           SKY/WX    TMP DP  RH WIND       PRES   REMARKS
TWIN CITIES    LGT RAIN  62  53  72 S12       29.52F
ST PAUL        LGT RAIN  58  55  90 S14       29.53F
CRYSTAL        LGT RAIN  61  53  75 SW6       29.51S
BLAINE         DRIZZLE   59  55  88 S5        29.52S
LAKEVILLE      TSTM      55  54  94 S7        29.57R
EDEN PRAIRIE   LGT RAIN  60  53  77 W7        29.53R
SOUTH ST PAUL  LGT RAIN  60  55  86 SE10      29.53F
LAKE ELMO      CLOUDY    59  55  88 SE8       29.53F
$$
MNZ001>005-007-008-013>017-022>024-027-028-020400-
   Northwest Minnesota

CITY           SKY/WX    TMP DP  RH WIND       PRES   REMARKS
BEMIDJI        CLEAR     52  43  72 W20       29.50R
HALLOCK        MOCLDY    46  39  76 NW9       29.54R
ROSEAU         CLOUDY    48  43  81 W18G24    29.48R
WARROAD        MOCLDY    50  43  76 W18G25    29.45S
THIEF RVR FALL MOCLDY    48  39  71 W25G31    29.54R
CROOKSTON      CLOUDY    48  37  66 NW15      29.57R
FOSSTON        CLOUDY    46  37  71 W15G22    29.55R
DETROIT LAKES  CLEAR     50  36  57 NW23G31   29.59R
MOORHEAD       PTCLDY    54  36  50 NW20      29.59R
PARK RAPIDS    CLEAR     54  40  59 W22       29.54R
MAHNOMEN       CLOUDY    50  38  62 NW21G35   29.56R
$$
MNZ006-009>011-018-025>026-020400-
   North Central Minnesota

CITY           SKY/WX    TMP DP  RH WIND       PRES   REMARKS
BAUDETTE       PTCLDY    50  38  63 W14       29.41S
FLAG ISLAND    PTCLDY    50  37  62 W16G23    29.40R
INTL FALLS     CLEAR     52  38  58 W14G23    29.39R
WASKISH        PTCLDY    43  37  81 W7        29.45S
BIG FORK       PTCLDY    54  39  58 W7        29.45R
LONGVILLE      PTCLDY    54  43  66 W9        29.51R
GRAND RAPIDS   CLEAR     55  39  54 W10       29.47R
ORR            PTCLDY    48  34  57 CALM      29.38R
COOK           PTCLDY    48  37  66 SW6       29.43R
WALKER         FAIR      53  42  65 W9G18     29.49R
$$
MNZ012-019>021-037-020400-
   Northeast Minnesota

CITY           SKY/WX    TMP DP  RH WIND       PRES   REMARKS
DULUTH         MOCLDY    39  34  82 SE6       29.46R
ELY            PTCLDY    36  30  80 SE7       29.42F
EVELETH        PTCLDY    36  32  87 CALM      29.45R
DULUTH HARBOR  MOCLDY    36  34  93 CALM      29.50R
TWO HARBORS    MOCLDY    41  34  75 W3        29.45R
SILVER BAY     MOCLDY    37  32  81 CALM      29.44R
GRAND MARAIS     N/A     44  35  70 NE9       29.45F
G MARAIS ARPRT MOCLDY    37  30  75 CALM      29.45F
$$
MNZ029>031-032-039>041-046>048-054>057-064-020400-
   West Central Minnesota

CITY           SKY/WX    TMP DP  RH WIND       PRES   REMARKS
FERGUS FALLS   CLEAR     54  36  50 NW21G30   29.61R
WHEATON        CLEAR     52  34  50 NW18      29.62R
MORRIS         CLEAR     54  34  47 NW17G28   29.59R
ALEXANDRIA     CLEAR     52  39  61 NW10      29.56R
ELBOW LAKE     FAIR      51  36  57 NW13      29.59R
WADENA         CLEAR     52  39  62 NW16      29.55R
GLENWOOD       PTCLDY    52  39  62 W10       29.57R
APPLETON       PTCLDY    57  32  38 NW17      29.59R
BENSON         MOCLDY    50  37  62 NW6       29.59R
ORTONVILLE     CLEAR     55  30  38 NW13G18   29.62R
MADISON        CLEAR     54  34  47 NW9       29.61R
WILLMAR        FAIR      55  41  58 W9        29.60R
$$
MNZ033>034-036-042>043-049>051-058-059-020400-
   Central Minnesota

CITY           SKY/WX    TMP DP  RH WIND       PRES   REMARKS
ST CLOUD       MOCLDY    57  41  55 NW10      29.54R
SAUK CENTRE    FAIR      55  41  59 NW9       29.54R
PAYNESVILLE    MOCLDY    47  39  75 SW7       29.57R
AITKIN         PTCLDY    61  39  44 W8        29.48R
PINE RIVER     CLEAR     55  43  62 NW9G17    29.56R
BRAINERD       CLEAR     55  41  59 NW9       29.52R
STAPLES        CLEAR     54  39  58 NW13G18   29.54R
LONG PRAIRIE   FAIR      54  39  58 W15       29.54R
LITTLE FALLS   PTCLDY    57  37  47 NW13G18   29.52R
LITCHFIELD     CLOUDY    57  46  67 CALM      29.58R
MAPLE LAKE     CLOUDY    58  46  64 W8        29.55R
$$
MNZ037-044-045-052-053-020400-
   East Central Minnesota

CITY           SKY/WX    TMP DP  RH WIND       PRES   REMARKS
PRINCETON      CLOUDY    59  45  58 W7        29.52R
MORA           MOCLDY    59  43  55 W8        29.50S
CAMBRIDGE      CLOUDY    61  48  63 S5        29.49R
RUSH CITY      CLOUDY    58  53  83 CALM      29.50R
MOOSE LAKE     MOCLDY    59  50  72 CALM      29.45S
HINCKLEY       FAIR      57  54  88 S5        29.48S
CLOQUET        MOCLDY    37  34  87 SE3       29.46S
MCGREGOR       PTCLDY    59  37  44 W7        29.47R
$$
MNZ071>073-080-081-089-090-097-098-020400-
   Southwest Minnesota

CITY           SKY/WX    TMP DP  RH WIND       PRES   REMARKS
MONTEVIDEO     MOCLDY    57  36  44 N9        29.61R
GRANITE FALLS  CLOUDY    54  37  52 W10       29.64R
CANBY          PTCLDY    57  33  40 NW14      29.63R
MARSHALL       MOCLDY    57  36  44 NW6       29.65R
REDWOOD FALLS  CLOUDY    58  45  62 W12       29.61R
OLIVIA         CLOUDY    52  45  76 W9        29.60R
PIPESTONE      CLOUDY    59  36  41 N7G16     29.65R
WINDOM         CLOUDY    57  46  67 NW14      29.61R
WORTHINGTON    CLOUDY    55  43  62 NW16      29.65R
JACKSON        CLOUDY    55  46  71 W8        29.63R
TRACY          MOCLDY    59  41  51 NW10      29.64R
SLAYTON        CLOUDY    55  39  53 NW12      29.66R
$$
MNZ065>067-074>077-082>085-091>093-020400-
   South Central Minnesota

CITY           SKY/WX    TMP DP  RH WIND       PRES   REMARKS
MANKATO        CLOUDY    57  50  77 NW6       29.59S
NEW ULM        CLOUDY    55  48  76 W3        29.59R
ST JAMES       CLOUDY    57  46  67 SW7       29.59S
FAIRMONT       CLOUDY    55  45  67 CALM      29.59R
GLENCOE        DRIZZLE   58  49  72 W10       29.55R
FARIBAULT      TSTM      55  54  94 W10       29.63R
OWATONNA       TSTM      59  52  77 W17G24    29.65R
WASECA         TSTM      59  50  72 NW10G28   29.64R
ALBERT LEA     LGT RAIN  66  52  59 W15G40    29.63R
$$
MNZ078>079-086>088-094>096-020400-
   Southeast Minnesota

CITY           SKY/WX    TMP DP  RH WIND       PRES   REMARKS
ROCHESTER      MOCLDY    62  42  47 S20G30    29.57R
RED WING       TSTM      66  50  55 NW15G29   29.58R
DODGE CENTER   CLOUDY    63  45  51 S24G33    29.55R
WINONA         PTCLDY    70  36  28 S17G25    29.57S
AUSTIN         CLOUDY    63  45  51 S18       29.56S
PRESTON        PTCLDY    63  39  42 S24G33    29.60R
$$
ABBREVIATIONS USED IN REMARKS
   TC - TEMPERATURES IN CELSIUS
  WCI - WIND CHILL INDEX
   HX - HEAT INDEX
  VSB - VISIBILITY
$$


USA.gov is the U.S. government's official web portal to all federal, state and local government web resources and services.